ASA1402 KSAN-KPDX

Flight info

Callsign ASA1402
Flight time 2h 5m
Altitude 36000
Route PADRZ2 EHF DNOLD GALLO TMBRS4
Aircraft B738/M-SDE2E3FGHIRWXY/LB1

Departure

Time 2026-04-22 21:34
Airport San Diego International Airport (KSAN)

Arrival

Time 2026-04-22 23:39
Airport Portland International Airport (KPDX)
Time Latitude Longitude Altitude Speed Heading
2026-04-22 20:17 32.73396 -117.20047 21 ft 0 kts 256°
2026-04-22 20:37 32.73395 -117.20050 20 ft 0 kts 256°
2026-04-22 21:24 32.73397 -117.20045 20 ft 3 kts 256°
2026-04-22 21:24 32.73402 -117.20021 20 ft 3 kts 256°
2026-04-22 21:25 32.73407 -117.19998 21 ft 3 kts 278°
2026-04-22 21:25 32.73398 -117.19978 21 ft 3 kts 329°
2026-04-22 21:25 32.73383 -117.19972 23 ft 3 kts 12°
2026-04-22 21:25 32.73382 -117.19972 21 ft 0 kts 12°
2026-04-22 21:28 32.73409 -117.19965 21 ft 10 kts 12°
2026-04-22 21:29 32.73475 -117.19903 23 ft 15 kts 94°
2026-04-22 21:29 32.73443 -117.19739 25 ft 26 kts 108°
2026-04-22 21:29 32.73391 -117.19528 24 ft 29 kts 105°
2026-04-22 21:29 32.73335 -117.19297 19 ft 31 kts 106°
2026-04-22 21:30 32.73298 -117.19147 21 ft 26 kts 106°
2026-04-22 21:30 32.73247 -117.18936 21 ft 30 kts 106°
2026-04-22 21:30 32.73186 -117.18685 27 ft 30 kts 106°
2026-04-22 21:30 32.73123 -117.18426 21 ft 33 kts 106°
2026-04-22 21:31 32.73072 -117.18218 20 ft 27 kts 106°
2026-04-22 21:31 32.73025 -117.18026 18 ft 21 kts 106°
2026-04-22 21:31 32.72993 -117.17891 16 ft 16 kts 106°
2026-04-22 21:31 32.72963 -117.17766 15 ft 15 kts 106°
2026-04-22 21:32 32.72948 -117.17699 16 ft 4 kts 96°
2026-04-22 21:32 32.72952 -117.17669 16 ft 4 kts 76°
2026-04-22 21:32 32.72967 -117.17607 20 ft 11 kts 68°
2026-04-22 21:32 32.73022 -117.17584 21 ft 11 kts 307°
2026-04-22 21:33 32.73062 -117.17748 18 ft 47 kts 285°
2026-04-22 21:33 32.73210 -117.18357 21 ft 106 kts 286°
2026-04-22 21:33 32.73467 -117.19415 30 ft 154 kts 287°
2026-04-22 21:33 32.73761 -117.20653 478 ft 160 kts 285°
2026-04-22 21:34 32.74159 -117.21896 1102 ft 162 kts 303°
2026-04-22 21:34 32.74803 -117.22987 1741 ft 162 kts 305°
2026-04-22 21:34 32.75501 -117.24153 2054 ft 187 kts 304°
2026-04-22 21:34 32.76299 -117.25514 2277 ft 209 kts 304°
2026-04-22 21:35 32.77153 -117.26982 2470 ft 227 kts 304°
2026-04-22 21:35 32.78082 -117.28598 2745 ft 244 kts 304°
2026-04-22 21:35 32.79052 -117.30289 3331 ft 250 kts 304°
2026-04-22 21:35 32.80039 -117.31997 4024 ft 252 kts 306°
2026-04-22 21:36 32.81093 -117.33664 4691 ft 254 kts 307°
2026-04-22 21:36 32.82182 -117.35335 5345 ft 257 kts 307°
2026-04-22 21:36 32.83286 -117.37026 6005 ft 260 kts 307°
2026-04-22 21:36 32.84398 -117.38731 6666 ft 263 kts 307°
2026-04-22 21:37 32.85534 -117.40485 7334 ft 265 kts 307°
2026-04-22 21:37 32.86664 -117.42234 8019 ft 268 kts 307°
2026-04-22 21:37 32.87793 -117.43986 8672 ft 272 kts 306°
2026-04-22 21:37 32.88946 -117.45775 9368 ft 274 kts 306°
2026-04-22 21:38 32.90109 -117.47582 10095 ft 276 kts 306°
2026-04-22 21:38 32.91275 -117.49395 10830 ft 277 kts 305°
2026-04-22 21:38 32.92483 -117.51277 11096 ft 297 kts 305°
2026-04-22 21:38 32.93780 -117.53301 11277 ft 318 kts 305°
2026-04-22 21:39 32.95167 -117.55466 11437 ft 339 kts 305°
2026-04-22 21:39 32.96634 -117.57754 11589 ft 357 kts 305°
2026-04-22 21:39 32.98177 -117.60160 11719 ft 373 kts 305°
2026-04-22 21:39 32.99767 -117.62641 12104 ft 380 kts 305°
2026-04-22 21:40 33.01380 -117.65156 12644 ft 383 kts 305°
2026-04-22 21:40 33.03000 -117.67684 13224 ft 384 kts 304°
2026-04-22 21:40 33.04624 -117.70225 13782 ft 386 kts 304°
2026-04-22 21:40 33.06260 -117.72763 14354 ft 388 kts 306°
2026-04-22 21:41 33.08188 -117.75062 14906 ft 395 kts 316°
2026-04-22 21:41 33.10328 -117.77137 15455 ft 398 kts 317°
2026-04-22 21:41 33.12484 -117.79222 16003 ft 400 kts 316°
2026-04-22 21:41 33.14627 -117.81346 16528 ft 402 kts 315°
2026-04-22 21:42 33.16770 -117.83513 17029 ft 404 kts 315°
2026-04-22 21:42 33.18909 -117.85695 17537 ft 406 kts 314°
2026-04-22 21:42 33.21073 -117.87877 18061 ft 408 kts 315°
2026-04-22 21:42 33.23271 -117.90031 18533 ft 411 kts 315°
2026-04-22 21:43 33.25500 -117.92193 18988 ft 414 kts 315°
2026-04-22 21:43 33.27739 -117.94362 19406 ft 416 kts 315°
2026-04-22 21:43 33.29996 -117.96554 19807 ft 420 kts 315°
2026-04-22 21:43 33.32267 -117.98767 20225 ft 422 kts 315°
2026-04-22 21:44 33.34546 -118.00991 20672 ft 424 kts 315°
2026-04-22 21:44 33.36829 -118.03224 21103 ft 425 kts 315°
2026-04-22 21:44 33.39120 -118.05467 21454 ft 428 kts 315°
2026-04-22 21:44 33.41433 -118.07735 21791 ft 431 kts 314°
2026-04-22 21:45 33.43756 -118.10015 22133 ft 433 kts 314°
2026-04-22 21:45 33.46088 -118.12304 22458 ft 435 kts 314°
2026-04-22 21:45 33.48438 -118.14612 22780 ft 438 kts 314°
2026-04-22 21:45 33.50797 -118.16929 23125 ft 440 kts 314°
2026-04-22 21:46 33.53171 -118.19264 23433 ft 442 kts 314°
2026-04-22 21:46 33.55546 -118.21602 23732 ft 444 kts 314°
2026-04-22 21:46 33.57991 -118.23896 23990 ft 451 kts 320°
2026-04-22 21:46 33.60807 -118.25665 24262 ft 463 kts 329°
2026-04-22 21:47 33.63775 -118.27197 24572 ft 465 kts 330°
2026-04-22 21:47 33.66751 -118.28724 24877 ft 465 kts 329°
2026-04-22 21:47 33.69721 -118.30297 25149 ft 466 kts 328°
2026-04-22 21:47 33.72671 -118.31909 25430 ft 467 kts 328°
2026-04-22 21:48 33.75627 -118.33546 25666 ft 469 kts 328°
2026-04-22 21:48 33.78568 -118.35132 25940 ft 470 kts 329°
2026-04-22 21:48 33.81584 -118.36654 26334 ft 469 kts 330°
2026-04-22 21:48 33.84589 -118.38133 26771 ft 466 kts 330°
2026-04-22 21:49 33.87584 -118.39611 27128 ft 465 kts 330°
2026-04-22 21:49 33.90571 -118.41103 27487 ft 464 kts 330°
2026-04-22 21:49 33.93547 -118.42604 27864 ft 462 kts 329°
2026-04-22 21:49 33.96503 -118.44100 28284 ft 460 kts 329°
2026-04-22 21:50 33.99453 -118.45583 28661 ft 460 kts 331°
2026-04-22 21:50 34.02592 -118.46555 29018 ft 474 kts 345°
2026-04-22 21:50 34.05871 -118.47009 29441 ft 473 kts 346°
2026-04-22 21:50 34.09135 -118.47445 29830 ft 471 kts 345°
2026-04-22 21:51 34.12384 -118.47888 30232 ft 469 kts 345°
2026-04-22 21:51 34.15617 -118.48351 30614 ft 467 kts 345°
2026-04-22 21:51 34.18846 -118.48833 30941 ft 467 kts 344°
2026-04-22 21:52 34.25289 -118.49822 31506 ft 467 kts 344°
2026-04-22 21:52 34.28505 -118.50320 31828 ft 466 kts 343°
2026-04-22 21:52 34.31718 -118.50817 32186 ft 464 kts 343°
2026-04-22 21:52 34.34917 -118.51312 32520 ft 463 kts 343°
2026-04-22 21:53 34.38115 -118.51807 32787 ft 463 kts 343°
2026-04-22 21:53 34.41308 -118.52301 33102 ft 462 kts 343°
2026-04-22 21:53 34.44494 -118.52793 33381 ft 462 kts 343°
2026-04-22 21:53 34.47677 -118.53287 33641 ft 462 kts 343°
2026-04-22 21:54 34.50865 -118.53781 33929 ft 461 kts 343°
2026-04-22 21:54 34.54048 -118.54269 34267 ft 459 kts 342°
2026-04-22 21:54 34.57203 -118.54756 34594 ft 457 kts 342°
2026-04-22 21:54 34.60363 -118.55248 34800 ft 458 kts 342°
2026-04-22 21:55 34.63527 -118.55742 35020 ft 459 kts 342°
2026-04-22 21:55 34.66697 -118.56236 35278 ft 458 kts 342°
2026-04-22 21:55 34.69859 -118.56729 35487 ft 459 kts 342°
2026-04-22 21:55 34.73024 -118.57223 35704 ft 459 kts 342°
2026-04-22 21:56 34.76184 -118.57717 35958 ft 457 kts 341°
2026-04-22 21:56 34.79338 -118.58209 36174 ft 457 kts 341°
2026-04-22 21:56 34.82502 -118.58705 36176 ft 460 kts 341°
2026-04-22 21:57 34.88849 -118.59696 36180 ft 459 kts 341°
2026-04-22 21:57 34.95159 -118.60677 36201 ft 456 kts 341°
2026-04-22 21:58 35.01251 -118.62160 36132 ft 425 kts 322°
2026-04-22 21:58 35.03713 -118.63977 36184 ft 409 kts 312°
2026-04-22 21:58 35.05929 -118.66146 36230 ft 409 kts 311°
2026-04-22 21:59 35.10315 -118.70673 36189 ft 415 kts 310°
2026-04-22 21:59 35.14707 -118.75217 36196 ft 414 kts 310°
2026-04-22 22:00 35.19133 -118.79738 36183 ft 414 kts 310°
2026-04-22 22:00 35.23553 -118.84230 36188 ft 412 kts 310°
2026-04-22 22:01 35.27933 -118.88683 36196 ft 411 kts 310°
2026-04-22 22:01 35.32331 -118.93164 36180 ft 411 kts 310°
2026-04-22 22:02 35.36721 -118.97645 36187 ft 411 kts 310°
2026-04-22 22:02 35.41106 -119.02127 36191 ft 410 kts 310°
2026-04-22 22:03 35.45492 -119.06615 36184 ft 410 kts 310°
2026-04-22 22:03 35.50332 -119.10517 36186 ft 436 kts 329°
2026-04-22 22:04 35.56168 -119.12782 36183 ft 442 kts 332°
2026-04-22 22:04 35.62061 -119.14914 36180 ft 441 kts 332°
2026-04-22 22:05 35.67936 -119.17082 36187 ft 440 kts 332°
2026-04-22 22:05 35.73778 -119.19285 36196 ft 439 kts 332°
2026-04-22 22:06 35.79606 -119.21505 36194 ft 438 kts 331°
2026-04-22 22:06 35.85422 -119.23727 36196 ft 438 kts 331°
2026-04-22 22:07 35.91235 -119.25950 36191 ft 437 kts 332°
2026-04-22 22:07 35.97037 -119.28172 36196 ft 436 kts 331°
2026-04-22 22:08 36.02827 -119.30392 36191 ft 435 kts 331°
2026-04-22 22:08 36.08571 -119.32599 36185 ft 435 kts 331°
2026-04-22 22:09 36.14345 -119.34819 36195 ft 435 kts 331°
2026-04-22 22:09 36.20118 -119.37041 36202 ft 434 kts 331°
2026-04-22 22:10 36.25899 -119.39271 36205 ft 435 kts 331°
2026-04-22 22:10 36.31679 -119.41505 36204 ft 435 kts 331°
2026-04-22 22:11 36.37465 -119.43745 36204 ft 436 kts 331°
2026-04-22 22:11 36.43254 -119.45989 36202 ft 436 kts 331°
2026-04-22 22:12 36.49045 -119.48236 36190 ft 436 kts 331°
2026-04-22 22:12 36.54845 -119.50490 36182 ft 437 kts 331°
2026-04-22 22:13 36.60643 -119.52748 36182 ft 437 kts 332°
2026-04-22 22:13 36.66450 -119.55012 36174 ft 438 kts 332°
2026-04-22 22:14 36.72267 -119.57284 36178 ft 438 kts 332°
2026-04-22 22:14 36.78085 -119.59561 36185 ft 438 kts 332°
2026-04-22 22:15 36.83911 -119.61843 36196 ft 439 kts 332°
2026-04-22 22:15 36.88752 -119.63743 36194 ft 439 kts 332°
2026-04-22 22:16 36.94583 -119.66036 36208 ft 439 kts 332°
2026-04-22 22:16 37.00414 -119.68333 36202 ft 440 kts 332°
2026-04-22 22:17 37.06258 -119.70634 36200 ft 440 kts 332°
2026-04-22 22:17 37.12100 -119.72942 36195 ft 440 kts 332°
2026-04-22 22:18 37.17935 -119.75249 36204 ft 440 kts 332°
2026-04-22 22:18 37.23785 -119.77564 36209 ft 441 kts 332°
2026-04-22 22:19 37.29648 -119.79893 36202 ft 442 kts 332°
2026-04-22 22:19 37.35516 -119.82225 36198 ft 443 kts 332°
2026-04-22 22:20 37.41389 -119.84564 36208 ft 443 kts 332°
2026-04-22 22:20 37.47266 -119.86908 36196 ft 443 kts 332°
2026-04-22 22:21 37.53140 -119.89251 36202 ft 442 kts 332°
2026-04-22 22:21 37.59010 -119.91603 36212 ft 442 kts 332°
2026-04-22 22:22 37.64867 -119.93950 36213 ft 442 kts 332°
2026-04-22 22:22 37.70685 -119.96283 36213 ft 442 kts 332°
2026-04-22 22:23 37.76548 -119.98642 36217 ft 442 kts 332°
2026-04-22 22:23 37.82412 -120.01008 36211 ft 443 kts 332°
2026-04-22 22:24 37.88294 -120.03361 36198 ft 444 kts 332°
2026-04-22 22:24 37.94159 -120.05744 36232 ft 443 kts 332°
2026-04-22 22:25 38.00021 -120.08132 36227 ft 442 kts 332°
2026-04-22 22:25 38.05867 -120.10502 36249 ft 440 kts 332°
2026-04-22 22:26 38.11706 -120.12868 36232 ft 441 kts 332°
2026-04-22 22:26 38.17559 -120.15246 36229 ft 441 kts 332°
2026-04-22 22:27 38.23405 -120.17628 36230 ft 442 kts 332°
2026-04-22 22:27 38.29263 -120.20019 36234 ft 442 kts 332°
2026-04-22 22:28 38.35126 -120.22419 36226 ft 444 kts 333°
2026-04-22 22:28 38.41012 -120.24830 36232 ft 444 kts 333°
2026-04-22 22:29 38.46898 -120.27243 36232 ft 444 kts 333°
2026-04-22 22:29 38.52786 -120.29663 36217 ft 445 kts 333°
2026-04-22 22:30 38.58674 -120.32088 36224 ft 445 kts 333°
2026-04-22 22:30 38.64560 -120.34515 36232 ft 445 kts 333°
2026-04-22 22:31 38.70448 -120.36948 36233 ft 444 kts 333°
2026-04-22 22:31 38.76342 -120.39385 36235 ft 446 kts 334°
2026-04-22 22:32 38.82238 -120.41833 36222 ft 446 kts 334°
2026-04-22 22:32 38.88101 -120.44267 36220 ft 446 kts 334°
2026-04-22 22:33 38.93997 -120.46722 36230 ft 446 kts 334°
2026-04-22 22:33 38.99897 -120.49180 36224 ft 445 kts 334°
2026-04-22 22:34 39.05800 -120.51642 36227 ft 446 kts 334°
2026-04-22 22:34 39.11711 -120.54116 36278 ft 446 kts 334°
2026-04-22 22:34 39.14663 -120.55353 36526 ft 446 kts 334°
2026-04-22 22:35 39.17618 -120.56592 36758 ft 446 kts 335°
2026-04-22 22:35 39.20557 -120.57823 37034 ft 444 kts 334°
2026-04-22 22:35 39.23487 -120.59051 37366 ft 441 kts 335°
2026-04-22 22:35 39.26397 -120.60271 37690 ft 438 kts 335°
2026-04-22 22:36 39.29289 -120.61488 37887 ft 438 kts 335°
2026-04-22 22:36 39.35127 -120.63953 38088 ft 442 kts 335°
2026-04-22 22:36 39.38037 -120.65180 38256 ft 440 kts 335°
2026-04-22 22:37 39.40959 -120.66415 38241 ft 442 kts 335°
2026-04-22 22:37 39.46827 -120.68898 38233 ft 444 kts 335°
2026-04-22 22:38 39.52696 -120.71380 38226 ft 444 kts 335°
2026-04-22 22:38 39.58563 -120.73867 38247 ft 443 kts 335°
2026-04-22 22:39 39.64434 -120.76366 38243 ft 446 kts 335°
2026-04-22 22:39 39.70329 -120.78871 38217 ft 446 kts 335°
2026-04-22 22:40 39.76210 -120.81378 38227 ft 444 kts 335°
2026-04-22 22:40 39.82084 -120.83901 38202 ft 445 kts 335°
2026-04-22 22:41 39.87919 -120.86390 38221 ft 443 kts 335°
2026-04-22 22:41 39.93774 -120.88897 38215 ft 443 kts 335°
2026-04-22 22:42 39.99622 -120.91410 38212 ft 442 kts 335°
2026-04-22 22:42 40.05462 -120.93925 38205 ft 442 kts 336°
2026-04-22 22:43 40.11301 -120.96441 38208 ft 442 kts 336°
2026-04-22 22:43 40.17134 -120.98970 38210 ft 442 kts 337°
2026-04-22 22:44 40.22979 -121.01489 38223 ft 442 kts 336°
2026-04-22 22:44 40.28829 -121.04025 38213 ft 443 kts 336°
2026-04-22 22:45 40.34686 -121.06570 38210 ft 444 kts 337°
2026-04-22 22:45 40.40561 -121.09126 38218 ft 445 kts 337°
2026-04-22 22:46 40.46456 -121.11679 38217 ft 446 kts 337°
2026-04-22 22:46 40.52385 -121.14120 38213 ft 447 kts 338°
2026-04-22 22:47 40.58336 -121.16540 38196 ft 448 kts 338°
2026-04-22 22:47 40.64276 -121.18974 38199 ft 447 kts 338°
2026-04-22 22:48 40.70215 -121.21424 38197 ft 447 kts 338°
2026-04-22 22:48 40.76110 -121.23865 38198 ft 447 kts 338°
2026-04-22 22:49 40.82083 -121.26341 38195 ft 447 kts 338°
2026-04-22 22:49 40.87976 -121.28788 38197 ft 447 kts 338°
2026-04-22 22:50 40.93899 -121.31252 38202 ft 447 kts 338°
2026-04-22 22:50 40.99827 -121.33724 38203 ft 447 kts 338°
2026-04-22 22:51 41.05754 -121.36199 38203 ft 447 kts 338°
2026-04-22 22:51 41.11689 -121.38685 38198 ft 447 kts 338°
2026-04-22 22:52 41.17618 -121.41170 38197 ft 448 kts 339°
2026-04-22 22:52 41.23557 -121.43665 38194 ft 448 kts 339°
2026-04-22 22:53 41.29489 -121.46161 38192 ft 447 kts 339°
2026-04-22 22:53 41.35413 -121.48659 38195 ft 446 kts 339°
2026-04-22 22:54 41.41332 -121.51162 38187 ft 446 kts 339°
2026-04-22 22:54 41.47252 -121.53668 38179 ft 446 kts 339°
2026-04-22 22:55 41.53166 -121.56174 38180 ft 446 kts 339°
2026-04-22 22:55 41.62041 -121.59948 38175 ft 446 kts 339°
2026-04-22 22:56 41.67954 -121.62469 38178 ft 446 kts 339°
2026-04-22 22:56 41.73878 -121.64996 38170 ft 447 kts 339°
2026-04-22 22:57 41.79796 -121.67531 38180 ft 446 kts 339°
2026-04-22 22:57 41.85696 -121.70045 38177 ft 445 kts 339°
2026-04-22 22:58 41.91561 -121.72571 38173 ft 445 kts 339°
2026-04-22 22:58 41.97460 -121.75115 38177 ft 445 kts 339°
2026-04-22 22:59 42.03364 -121.77663 38176 ft 445 kts 339°
2026-04-22 22:59 42.09266 -121.80211 38176 ft 446 kts 339°
2026-04-22 23:00 42.15168 -121.82766 38174 ft 445 kts 339°
2026-04-22 23:00 42.21073 -121.85327 38176 ft 446 kts 339°
2026-04-22 23:01 42.26977 -121.87892 38173 ft 446 kts 339°
2026-04-22 23:01 42.32895 -121.90469 38167 ft 447 kts 339°
2026-04-22 23:02 42.38817 -121.93052 38171 ft 447 kts 339°
2026-04-22 23:02 42.44732 -121.95639 38174 ft 447 kts 339°
2026-04-22 23:03 42.49695 -121.97811 38177 ft 447 kts 339°
2026-04-22 23:03 42.55615 -122.00409 38177 ft 447 kts 339°
2026-04-22 23:04 42.61537 -122.03011 38188 ft 447 kts 340°
2026-04-22 23:04 42.67455 -122.05617 38183 ft 447 kts 340°
2026-04-22 23:05 42.73370 -122.08228 38185 ft 446 kts 340°
2026-04-22 23:05 42.79277 -122.10842 38192 ft 446 kts 340°
2026-04-22 23:06 42.85136 -122.13438 38190 ft 446 kts 340°
2026-04-22 23:06 42.91040 -122.16062 38197 ft 446 kts 340°
2026-04-22 23:07 42.96959 -122.18771 38196 ft 446 kts 339°
2026-04-22 23:07 43.02821 -122.21542 38195 ft 446 kts 339°
2026-04-22 23:08 43.08676 -122.24310 38197 ft 446 kts 339°
2026-04-22 23:08 43.14541 -122.27078 38203 ft 446 kts 340°
2026-04-22 23:09 43.20367 -122.29826 38202 ft 446 kts 340°
2026-04-22 23:09 43.26240 -122.32602 38194 ft 446 kts 340°
2026-04-22 23:10 43.32102 -122.35380 38201 ft 446 kts 340°
2026-04-22 23:10 43.37967 -122.38166 38212 ft 445 kts 340°
2026-04-22 23:11 43.43823 -122.40953 38214 ft 445 kts 340°
2026-04-22 23:11 43.49680 -122.43748 38214 ft 445 kts 340°
2026-04-22 23:12 43.55522 -122.46548 38227 ft 444 kts 339°
2026-04-22 23:12 43.61395 -122.49318 38227 ft 446 kts 340°
2026-04-22 23:13 43.64330 -122.50737 37956 ft 451 kts 340°
2026-04-22 23:13 43.67293 -122.52175 37516 ft 449 kts 340°
2026-04-22 23:13 43.70237 -122.53600 36885 ft 448 kts 341°
2026-04-22 23:13 43.73171 -122.55019 36365 ft 444 kts 341°
2026-04-22 23:14 43.76085 -122.56427 35608 ft 446 kts 341°
2026-04-22 23:14 43.79018 -122.57843 34963 ft 446 kts 342°
2026-04-22 23:14 43.81945 -122.59258 34268 ft 447 kts 342°
2026-04-22 23:14 43.84883 -122.60681 33567 ft 447 kts 343°
2026-04-22 23:15 43.87819 -122.62105 32840 ft 447 kts 343°
2026-04-22 23:15 43.90748 -122.63524 32099 ft 447 kts 343°
2026-04-22 23:15 43.93685 -122.64948 31328 ft 448 kts 343°
2026-04-22 23:15 43.96634 -122.66380 30538 ft 449 kts 343°
2026-04-22 23:16 43.99580 -122.67813 29711 ft 450 kts 344°
2026-04-22 23:16 44.02535 -122.69262 28823 ft 451 kts 343°
2026-04-22 23:16 44.05503 -122.70704 27920 ft 453 kts 343°
2026-04-22 23:16 44.08489 -122.72155 26926 ft 456 kts 343°
2026-04-22 23:17 44.11491 -122.73610 25994 ft 456 kts 344°
2026-04-22 23:17 44.14494 -122.74666 25310 ft 448 kts 352°
2026-04-22 23:17 44.17569 -122.75090 24602 ft 442 kts 360°
2026-04-22 23:17 44.20620 -122.74891 23904 ft 436 kts
2026-04-22 23:18 44.23633 -122.74544 23201 ft 432 kts
2026-04-22 23:18 44.26610 -122.74211 22507 ft 427 kts
2026-04-22 23:18 44.29557 -122.73897 21819 ft 423 kts
2026-04-22 23:18 44.32478 -122.73597 21135 ft 418 kts
2026-04-22 23:19 44.35365 -122.73309 20458 ft 413 kts
2026-04-22 23:19 44.38219 -122.73026 19782 ft 409 kts
2026-04-22 23:19 44.41042 -122.72748 19110 ft 405 kts
2026-04-22 23:19 44.43832 -122.72472 18652 ft 396 kts
2026-04-22 23:20 44.46524 -122.72207 18493 ft 380 kts
2026-04-22 23:20 44.49110 -122.71950 18320 ft 366 kts
2026-04-22 23:20 44.51604 -122.71702 18161 ft 353 kts
2026-04-22 23:20 44.54014 -122.71462 18001 ft 341 kts
2026-04-22 23:21 44.56344 -122.71230 17871 ft 330 kts
2026-04-22 23:21 44.58604 -122.71006 17652 ft 322 kts
2026-04-22 23:21 44.60855 -122.70780 17184 ft 323 kts
2026-04-22 23:21 44.63085 -122.70557 16797 ft 321 kts
2026-04-22 23:22 44.65308 -122.70333 16402 ft 319 kts
2026-04-22 23:22 44.67515 -122.70112 16013 ft 317 kts
2026-04-22 23:22 44.69711 -122.69891 15622 ft 316 kts
2026-04-22 23:22 44.71893 -122.69671 15235 ft 314 kts
2026-04-22 23:23 44.74065 -122.69452 14846 ft 312 kts
2026-04-22 23:23 44.76218 -122.69237 14472 ft 309 kts
2026-04-22 23:23 44.78359 -122.69021 14105 ft 307 kts
2026-04-22 23:23 44.80485 -122.68805 13716 ft 305 kts
2026-04-22 23:24 44.82599 -122.68592 13310 ft 305 kts
2026-04-22 23:24 44.84710 -122.68379 12936 ft 303 kts
2026-04-22 23:24 44.86804 -122.68170 12576 ft 301 kts
2026-04-22 23:24 44.88885 -122.67960 12211 ft 299 kts
2026-04-22 23:25 44.90951 -122.67752 11913 ft 295 kts
2026-04-22 23:25 44.92959 -122.67547 11795 ft 285 kts
2026-04-22 23:25 44.94912 -122.67349 11663 ft 277 kts
2026-04-22 23:25 44.96800 -122.67127 11504 ft 271 kts
2026-04-22 23:26 44.98644 -122.66491 11226 ft 273 kts 13°
2026-04-22 23:26 45.00420 -122.65666 11131 ft 265 kts 13°
2026-04-22 23:26 45.02147 -122.64854 10953 ft 260 kts 13°
2026-04-22 23:26 45.03870 -122.64069 10671 ft 259 kts 12°
2026-04-22 23:27 45.05589 -122.63304 10417 ft 259 kts 12°
2026-04-22 23:27 45.07317 -122.62548 10163 ft 263 kts 12°
2026-04-22 23:27 45.09095 -122.61772 9872 ft 270 kts 12°
2026-04-22 23:27 45.10891 -122.60923 9584 ft 276 kts 20°
2026-04-22 23:28 45.12400 -122.59179 9259 ft 288 kts 46°
2026-04-22 23:28 45.13618 -122.56920 8962 ft 289 kts 49°
2026-04-22 23:28 45.14816 -122.54633 8663 ft 289 kts 49°
2026-04-22 23:28 45.16020 -122.52347 8394 ft 289 kts 49°
2026-04-22 23:29 45.17225 -122.50068 8107 ft 289 kts 49°
2026-04-22 23:29 45.18435 -122.47791 7825 ft 289 kts 49°
2026-04-22 23:29 45.19642 -122.45525 7563 ft 287 kts 49°
2026-04-22 23:29 45.20830 -122.43296 7298 ft 287 kts 49°
2026-04-22 23:30 45.22028 -122.41049 7031 ft 286 kts 49°
2026-04-22 23:30 45.23350 -122.38992 6726 ft 279 kts 28°
2026-04-22 23:30 45.25066 -122.37896 6462 ft 266 kts
2026-04-22 23:30 45.26848 -122.37252 6222 ft 262 kts
2026-04-22 23:31 45.28629 -122.36698 5933 ft 263 kts
2026-04-22 23:31 45.30411 -122.36146 5672 ft 261 kts
2026-04-22 23:31 45.32187 -122.35586 5402 ft 261 kts
2026-04-22 23:31 45.33934 -122.35022 5136 ft 254 kts
2026-04-22 23:32 45.35623 -122.34466 4889 ft 245 kts
2026-04-22 23:32 45.37266 -122.33932 4651 ft 239 kts
2026-04-22 23:32 45.38875 -122.33403 4426 ft 237 kts
2026-04-22 23:32 45.40475 -122.32870 4200 ft 235 kts
2026-04-22 23:33 45.42057 -122.32345 4033 ft 231 kts
2026-04-22 23:33 45.43579 -122.31833 3933 ft 221 kts
2026-04-22 23:33 45.45039 -122.31344 3813 ft 210 kts
2026-04-22 23:33 45.46446 -122.31095 3690 ft 198 kts 344°
2026-04-22 23:34 45.47523 -122.32034 3579 ft 177 kts 302°
2026-04-22 23:34 45.48230 -122.33488 3503 ft 182 kts 301°
2026-04-22 23:34 45.48963 -122.34958 3325 ft 180 kts 303°
2026-04-22 23:34 45.49615 -122.36435 3174 ft 173 kts 295°
2026-04-22 23:35 45.50167 -122.37910 3028 ft 164 kts 295°
2026-04-22 23:35 45.50685 -122.39283 2958 ft 156 kts 294°
2026-04-22 23:35 45.51192 -122.40651 2790 ft 159 kts 296°
2026-04-22 23:35 45.51736 -122.42036 2575 ft 160 kts 295°
2026-04-22 23:36 45.52274 -122.43420 2345 ft 156 kts 295°
2026-04-22 23:36 45.52780 -122.44727 2168 ft 146 kts 295°
2026-04-22 23:36 45.53274 -122.46010 2001 ft 149 kts 295°
2026-04-22 23:36 45.53779 -122.47321 1771 ft 151 kts 295°
2026-04-22 23:37 45.54285 -122.48628 1555 ft 148 kts 296°
2026-04-22 23:37 45.54777 -122.49897 1364 ft 144 kts 295°
2026-04-22 23:37 45.55261 -122.51152 1183 ft 145 kts 296°
2026-04-22 23:37 45.55751 -122.52418 987 ft 147 kts 294°
2026-04-22 23:38 45.56246 -122.53695 796 ft 147 kts 294°
2026-04-22 23:38 45.56731 -122.54967 602 ft 145 kts 294°
2026-04-22 23:38 45.57222 -122.56210 428 ft 146 kts 290°
2026-04-22 23:38 45.57716 -122.57492 213 ft 145 kts 294°
2026-04-22 23:39 45.58187 -122.58726 37 ft 138 kts 295°
2026-04-22 23:39 45.58594 -122.59799 30 ft 101 kts 297°
2026-04-22 23:39 45.58800 -122.60338 26 ft 25 kts 303°
2026-04-22 23:39 45.58878 -122.60461 30 ft 13 kts 342°
2026-04-22 23:40 45.58950 -122.60450 27 ft 5 kts 35°
2026-04-22 23:40 45.58980 -122.60414 27 ft 8 kts 43°
2026-04-22 23:40 45.59027 -122.60346 27 ft 11 kts 45°
2026-04-22 23:40 45.59081 -122.60271 27 ft 11 kts 45°
2026-04-22 23:41 45.59129 -122.60191 27 ft 11 kts 67°
2026-04-22 23:41 45.59137 -122.60086 27 ft 11 kts 90°
2026-04-22 23:41 45.59139 -122.59983 27 ft 10 kts 87°
2026-04-22 23:41 45.59122 -122.59887 28 ft 10 kts 118°
2026-04-22 23:42 45.59096 -122.59850 28 ft 3 kts 173°
2026-04-22 23:42 45.59080 -122.59867 28 ft 3 kts 211°
2026-04-22 23:42 45.59061 -122.59882 28 ft 3 kts 208°
2026-04-22 23:42 45.59043 -122.59896 28 ft 3 kts 209°
2026-04-22 23:43 45.59041 -122.59898 28 ft 0 kts 209°